Terug naar catalogus

PSLV DEB

ActiefSSO
NORAD 27089·DEBRIS·🇮🇳 India

Gelanceerd Oct 22, 2001 vanaf Satish Dhawan Space Centre

Loading…

Volgende Passages (komende 24 uur)

TLE

VersSource: Space-Track

Epoch: Sep 14, 2026, 13:00 UTC

1 27089U 01049AH  26257.54223463  .00000363  00000-0  34277-4 0  9990
2 27089  98.1170 283.7266 0049139 137.4529  21.7496 14.99553838342772

Volg PSLV DEB in realtime met AllMySat

Download on the App Store